1496782800.53,33119,18.13,73558.0,4.61,4.15,4.23,0,*72
1496782801.7,33120,18.13,73554.0,4.57,4.23,4.15,0,*7D
1496782802.88,33121,18.13,73552.5,4.57,4.23,4.23,0,*79
1496782804.05,33122,18.13,73550.8,4.57,4.23,4.15,0,*7F
1496782805.24,33123,18.13,73550.3,4.61,4.15,4.23,0,*7B
1496782806.42,33124,18.13,73548.8,4.61,4.11,4.23,0,*78
1496782807.6,33125,18.13,73540.8,4.61,4.15,4.15,0,*78
1496782808.78,33126,18.13,73546.5,4.61,4.15,4.23,0,*7E
1496782809.96,33127,18.13,73546.5,4.61,4.23,4.27,0,*7E
1496782811.14,33128,18.13,73546.0,4.61,4.27,4.23,0,*71
1496782812.31,33129,18.13,73546.5,4.61,4.23,4.23,0,*74
1496782813.49,33130,18.13,73550.3,4.61,4.23,4.23,0,*7C
1496782814.67,33131,18.13,73548.8,4.61,4.23,4.23,0,*7D
1496782815.85,33132,18.13,73544.8,4.61,4.23,4.23,0,*7E
1496782817.03,33133,18.13,73548.3,4.61,4.15,4.23,0,*7A
1496782818.22,33134,18.13,73548.0,4.61,4.15,4.15,0,*78
1496782819.4,33135,18.13,73548.0,4.61,4.15,4.23,0,*7C
1496782820.6,33136,18.13,73550.5,4.63,4.27,4.19,0,*75
1496782821.77,33137,18.13,73548.0,4.65,4.19,4.19,0,*7F
1496782822.97,33138,18.13,73554.5,4.63,4.15,4.15,0,*76
1496782824.17,33139,18.13,73560.3,4.63,4.19,4.19,0,*77
1496782825.37,33140,18.13,73560.5,4.63,4.19,4.27,0,*74
1496782826.57,33141,18.13,73574.8,4.63,4.15,4.15,0,*78
1496782827.74,33142,18.13,73576.0,4.65,4.19,4.19,0,*7D
1496782829.0,33143,18.13,73558.5,4.63,4.05,4.05,0,*7A
1496782830.24,33144,18.13,73550.8,4.63,4.07,4.05,0,*7F
1496782831.41,33145,18.13,73564.5,4.65,4.15,4.19,0,*76
1496782832.61,33146,18.13,73572.3,4.63,4.15,4.19,0,*73
1496782833.81,33147,18.13,73580.5,4.67,4.23,4.19,0,*73
1496782835.01,33148,18.13,73590.3,4.63,4.19,4.15,0,*7D
1496782836.21,33149,18.13,73582.3,4.67,4.23,4.23,0,*74
1496782837.38,33150,18.13,73576.8,4.65,4.15,4.19,0,*72
1496782838.56,33151,18.13,73572.0,4.65,4.15,4.15,0,*7F
1496782839.73,33152,18.13,73574.3,4.69,4.23,4.27,0,*74
1496782840.91,33153,18.13,73574.0,4.65,4.07,4.15,0,*7E
1496782842.11,33154,18.13,73566.0,4.63,4.15,4.19,0,*70
1496782843.31,33155,18.13,73572.8,4.67,4.23,4.23,0,*79
1496782844.51,33156,18.13,73566.8,4.63,4.19,4.15,0,*72
1496782845.68,33157,18.13,73562.5,4.65,4.19,4.27,0,*74
1496782846.89,33158,18.13,73562.8,4.65,4.15,4.31,0,*70
1496782848.06,33159,18.13,73564.8,4.65,4.15,4.19,0,*7B
1496782849.26,33160,18.13,73560.5,4.67,4.23,4.23,0,*7F
1496782850.46,33161,18.13,73562.3,4.67,4.19,4.19,0,*7E
1496782851.66,33162,18.13,73554.5,4.67,4.23,4.23,0,*7D
1496782852.86,33163,18.13,73560.5,4.67,4.23,4.19,0,*75
1496782854.09,33164,18.13,73550.8,4.67,4.23,4.31,0,*78
1496782855.27,33165,18.13,73558.0,4.69,4.27,4.23,0,*70
1496782856.5,33166,18.13,73554.5,4.67,4.23,4.31,0,*7A
1496782857.76,33167,18.13,73556.0,4.67,4.31,4.31,0,*78
1496782859.02,33168,18.13,73558.8,4.67,4.31,4.31,0,*77
1496782860.2,33169,18.13,73562.3,4.69,4.33,4.33,0,*78
1496782861.38,33170,18.13,73562.0,4.69,4.33,4.33,0,*70
1496782862.62,33171,18.13,73556.0,4.67,4.23,4.31,0,*7C
1496782863.85,33172,18.13,73554.0,4.67,4.31,4.33,0,*7E
1496782865.03,33173,18.13,73566.5,4.65,4.27,4.37,0,*7E
1496782866.22,33174,18.13,73562.8,4.69,4.33,4.33,0,*74
1496782867.42,33175,18.13,73558.8,4.67,4.23,4.33,0,*7A
1496782868.6,33176,18.13,73560.8,4.69,4.27,4.27,0,*76
1496782869.77,33177,18.13,73556.0,4.69,4.33,4.27,0,*72
1496782870.95,33178,18.13,73568.0,4.69,4.27,4.27,0,*78
1496782872.13,33179,18.13,73562.5,4.69,4.37,4.33,0,*7D
1496782873.32,33180,18.13,73566.5,4.73,4.37,4.41,0,*75
1496782874.5,33181,18.13,73562.8,4.73,4.41,4.37,0,*74
1496782875.68,33182,18.13,73570.8,4.69,4.33,4.33,0,*7D
1496782876.87,33183,18.13,73574.3,4.73,4.37,4.41,0,*76
1496782878.05,33184,18.13,73576.0,4.73,4.37,4.41,0,*71
1496782879.24,33185,18.13,73570.3,4.73,4.37,4.37,0,*71
1496782880.42,33186,18.13,73570.8,4.73,4.37,4.41,0,*73
1496782881.61,33187,18.13,73568.8,4.73,4.37,4.37,0,*73
1496782882.8,33188,18.13,73570.5,4.73,4.37,4.37,0,*7C
1496782883.98,33189,18.13,73568.0,4.73,4.37,4.37,0,*7D
1496782885.19,33190,18.13,73568.5,4.73,4.31,4.41,0,*72
1496782886.4,33191,18.13,73560.5,4.73,4.31,4.41,0,*73
1496782887.58,33192,18.13,73564.5,4.73,4.27,4.27,0,*77
1496782888.75,33193,18.13,73558.5,4.73,4.27,4.27,0,*76
1496782889.92,33194,18.13,73560.5,4.73,4.19,4.27,0,*7C
1496782891.15,33195,18.13,73566.8,4.73,4.31,4.31,0,*70
1496782892.36,33196,18.13,73564.5,4.73,4.31,4.37,0,*75
1496782893.54,33197,18.13,73560.0,4.73,4.15,4.07,0,*71
1496782894.72,33198,18.13,73560.8,4.73,3.81,3.89,0,*75
1496782895.91,33199,18.13,73560.3,4.73,3.89,3.89,0,*7C
1496782897.12,33200,18.13,73570.0,4.73,4.05,4.07,0,*7D
1496782898.29,33201,18.13,73570.8,4.73,4.15,4.15,0,*7E
1496782899.46,33202,18.13,73570.5,4.73,4.19,4.19,0,*7D
1496782900.64,33203,18.13,73568.3,4.73,4.19,4.27,0,*71
1496782901.81,33204,18.13,73564.3,4.73,4.27,4.27,0,*7B
1496782902.98,33205,18.13,73566.8,4.73,4.19,4.19,0,*7A
1496782904.15,33206,18.13,73564.8,4.73,4.19,4.15,0,*75
1496782905.33,33207,18.13,73562.3,4.73,4.27,4.15,0,*79
1496782906.51,33208,18.13,73564.3,4.73,4.15,4.27,0,*76
1496782907.68,33209,18.13,73562.0,4.73,4.19,4.19,0,*76
1496782908.85,33210,18.13,73564.5,4.73,4.19,4.27,0,*73
1496782910.03,33211,18.13,73560.3,4.73,4.15,4.15,0,*7F
1496782911.2,33212,18.13,73556.0,4.73,4.19,4.15,0,*70
1496782912.38,33213,18.13,73554.5,4.73,4.15,4.15,0,*7D
1496782913.55,33214,18.13,73556.0,4.73,4.15,4.19,0,*76
1496782914.72,33215,18.13,73562.5,4.73,4.19,4.19,0,*7B
1496782915.93,33216,18.13,73560.5,4.73,4.19,4.31,0,*72
1496782917.13,33217,18.13,73558.3,4.73,4.15,4.31,0,*7F
1496782918.3,33218,18.13,73556.8,4.73,4.19,4.27,0,*7B
1496782919.51,33219,18.13,73554.0,4.73,4.27,4.31,0,*70
1496782920.74,33220,18.13,73558.8,4.73,4.31,4.31,0,*7D
1496782921.94,33221,18.13,73556.3,4.73,4.31,4.27,0,*7B
1496782923.12,33222,18.13,73556.3,4.73,4.27,4.27,0,*7F
1496782924.32,33223,18.13,73556.8,4.73,4.19,4.31,0,*74
1496782925.49,33224,18.13,73562.5,4.73,4.19,4.27,0,*74
1496782926.67,33225,18.13,73562.8,4.73,4.27,4.27,0,*78
1496782927.84,33226,18.13,73562.3,4.73,4.27,4.27,0,*7B
1496782929.05,33227,18.13,73560.0,4.73,4.19,4.31,0,*70
1496782930.22,33228,18.13,73558.0,4.73,4.27,4.27,0,*75
1496782931.39,33229,18.13,73558.3,4.73,4.27,4.27,0,*74
1496782932.57,33230,18.13,73560.5,4.73,4.19,4.19,0,*7C
1496782933.74,33231,18.13,73558.5,4.73,4.19,4.19,0,*7D
1496782934.94,33232,18.06,73552.0,4.75,4.27,4.19,0,*75
1496782936.17,33233,18.13,73558.5,4.75,4.27,4.31,0,*7E
1496782937.34,33234,18.13,73552.5,4.73,4.27,4.27,0,*78
1496782938.51,33235,18.13,73554.0,4.73,4.19,4.19,0,*79
1496782939.7,33236,18.13,73554.0,4.73,4.07,4.07,0,*7A
1496782940.93,33237,18.13,73550.0,4.73,4.05,4.05,0,*7B
1496782942.11,33238,18.13,73540.5,4.73,4.07,4.07,0,*74
1496782943.29,33239,18.13,73548.3,4.73,4.15,4.07,0,*76
1496782944.47,33240,18.13,73554.5,4.73,4.07,4.07,0,*7B
1496782945.7,33241,18.13,73554.0,4.73,4.05,4.01,0,*7E
1496782946.92,33242,18.13,73554.0,4.73,4.01,4.01,0,*79
1496782948.14,33243,18.13,73560.8,4.73,4.01,4.01,0,*78
1496782949.35,33244,18.13,73562.8,4.73,4.01,3.93,0,*73
1496782950.57,33245,18.13,73564.0,4.73,4.01,4.05,0,*7A
1496782951.8,33246,18.06,73568.0,4.73,4.01,4.05,0,*79
1496782952.98,33247,18.13,73564.8,4.73,3.93,3.89,0,*77
1496782954.16,33248,18.13,73566.8,4.73,3.81,3.81,0,*73
1496782955.39,33249,18.13,73542.0,4.73,3.79,3.79,0,*72
1496782956.57,33250,18.13,73542.5,4.73,3.89,3.89,0,*7A
1496782957.75,33251,18.13,73542.8,4.73,3.89,3.89,0,*7B
1496782958.94,33252,18.13,73532.5,4.73,3.89,3.89,0,*78
1496782960.12,33253,18.06,73540.0,4.73,3.81,3.81,0,*79
1496782961.3,33254,18.13,73546.3,4.73,3.81,3.81,0,*7E
1496782962.48,33255,18.06,73544.8,4.73,3.89,3.89,0,*7F
1496782963.69,33256,18.06,73540.0,4.73,3.79,3.89,0,*73
1496782964.92,33257,18.13,73562.3,4.69,3.67,3.67,0,*76
1496782966.12,33258,18.13,73554.5,4.67,3.59,3.63,0,*7E
1496782967.38,33259,18.13,73548.3,4.67,3.75,3.71,0,*72
1496782968.58,33260,18.06,73566.5,4.69,3.79,3.85,0,*71
1496782969.75,33261,18.13,73572.8,4.69,3.85,3.85,0,*73
1496782970.97,33262,18.06,73580.0,4.69,3.97,3.97,0,*70
1496782972.2,33263,18.13,73574.3,4.69,4.01,4.01,0,*71
1496782973.44,33264,18.13,73578.0,4.67,4.01,3.97,0,*70
1496782974.67,33265,18.06,73578.3,4.69,4.01,4.05,0,*73
1496782975.9,33266,18.13,73580.8,4.69,4.05,4.05,0,*74
1496782977.15,33267,18.13,73584.3,4.67,4.01,4.01,0,*7B
1496782978.36,33268,18.06,73574.8,4.73,4.07,4.05,0,*73
1496782979.58,33269,18.06,73580.3,4.69,3.97,3.97,0,*7B
1496782980.78,33270,18.13,73586.8,4.69,3.97,3.89,0,*7C
1496782981.97,33271,18.13,73580.8,4.69,3.89,3.89,0,*72
1496782983.18,33272,18.06,73576.5,4.67,3.93,3.93,0,*7F
1496782984.38,33273,18.06,73574.0,4.69,3.93,3.97,0,*74
1496782985.58,33274,18.06,73574.8,4.69,3.97,3.85,0,*74
1496782986.81,33275,18.06,73572.3,4.67,3.81,3.75,0,*73
1496782987.98,33276,18.13,73572.0,4.69,3.85,3.85,0,*75
1496782989.2,33277,18.06,73568.3,4.69,3.97,3.97,0,*74
1496782990.43,33278,18.13,73564.5,4.69,4.05,4.01,0,*7F
1496782991.66,33279,18.13,73556.0,4.67,4.01,4.07,0,*72
1496782992.91,33280,18.06,73544.8,4.67,4.01,3.97,0,*7A
1496782994.13,33281,18.06,73536.3,4.69,4.01,4.01,0,*7D
1496782995.35,33282,18.06,73522.5,4.69,4.01,4.01,0,*7E
1496782996.53,33283,18.06,73514.3,4.69,3.89,3.85,0,*73
1496782997.75,33284,18.13,73514.8,4.69,3.97,3.97,0,*78
1496782998.96,33285,18.06,73512.3,4.67,3.93,3.93,0,*77
1496783000.19,33286,18.06,73512.5,4.67,3.75,3.85,0,*7B
1496783001.4,33287,18.06,73518.8,4.67,3.93,3.93,0,*75
1496783002.6,33288,18.06,73524.3,4.69,3.97,3.89,0,*7B
1496783003.81,33289,18.06,73524.5,4.69,3.89,3.97,0,*7A
1496783005.02,33290,18.06,73528.5,4.67,3.93,3.93,0,*73
1496783006.22,33291,18.06,73530.0,4.67,3.85,3.93,0,*75
1496783007.43,33292,18.06,73526.5,4.67,3.85,3.93,0,*76
1496783008.64,33293,18.06,73532.3,4.67,3.93,3.93,0,*70
1496783009.87,33294,18.06,73536.3,4.67,3.97,3.93,0,*73
1496783011.12,33295,18.06,73540.8,4.67,3.97,3.97,0,*76
1496783012.36,33296,18.06,73552.5,4.67,3.97,3.97,0,*75
1496783013.59,33297,18.13,73554.0,4.69,4.05,4.01,0,*7E
1496783014.82,33298,18.06,73548.8,4.69,4.05,4.01,0,*71
1496783016.07,33299,18.13,73546.0,4.67,3.97,3.97,0,*7A
1496783017.32,33300,18.06,73548.5,4.67,3.97,3.97,0,*7B
1496783018.57,33301,18.06,73552.3,4.67,4.01,4.01,0,*7A
1496783019.74,33302,18.06,73552.5,4.69,4.15,4.11,0,*73
1496783020.95,33303,18.06,73548.0,4.69,4.11,4.01,0,*77
1496783022.17,33304,18.06,73548.0,4.69,4.01,4.01,0,*71
1496783023.42,33305,18.06,73554.5,4.67,3.97,3.97,0,*7E
1496783024.65,33306,18.06,73552.8,4.69,4.05,4.05,0,*73
1496783025.86,33307,18.13,73554.8,4.67,4.07,4.07,0,*7C
1496783027.03,33308,18.06,73556.5,4.69,4.15,4.11,0,*79
1496783028.21,33309,18.06,73558.5,4.69,4.11,4.15,0,*78
1496783029.39,33310,18.06,73556.5,4.69,4.11,4.11,0,*74
1496783030.56,33311,18.13,73558.3,4.69,4.15,4.15,0,*75
1496783031.74,33312,18.06,73550.8,4.73,4.15,4.15,0,*7D
1496783032.91,33313,18.06,73544.5,4.73,4.19,4.19,0,*7C
1496783034.09,33314,18.13,73538.0,4.69,4.23,4.23,0,*70
1496783035.26,33315,18.06,73532.3,4.69,4.23,4.27,0,*75
1496783036.47,33316,18.06,73528.8,4.73,4.27,4.31,0,*7E
1496783037.65,33317,18.13,73528.3,4.69,4.15,4.23,0,*76
1496783038.82,33318,18.06,73526.0,4.73,4.15,4.19,0,*7B
1496783039.99,33319,18.06,73522.3,4.73,4.19,4.19,0,*76
1496783041.16,33320,18.06,73522.3,4.73,4.19,4.19,0,*7C
1496783042.33,33321,18.06,73522.8,4.73,4.19,4.27,0,*70
1496783043.54,33322,18.06,73520.0,4.73,4.27,4.31,0,*79
1496783044.71,33323,18.06,73514.5,4.73,4.27,4.27,0,*7F
1496783045.88,33324,18.06,73516.0,4.73,4.19,4.19,0,*78
1496783047.06,33325,18.06,73526.0,4.73,4.19,4.19,0,*79
1496783048.23,33326,18.06,73534.5,4.73,4.15,4.19,0,*76
1496783049.41,33327,18.06,73516.3,4.73,4.15,4.15,0,*7B
1496783050.58,33328,18.06,73516.8,4.73,4.15,4.19,0,*78
1496783051.75,33329,18.06,73520.3,4.73,4.19,4.19,0,*75
1496783052.95,33330,18.06,73532.0,4.75,4.27,4.27,0,*7B
1496783054.14,33331,18.06,73540.8,4.73,4.27,4.37,0,*7D
1496783055.34,33332,18.06,73518.0,4.73,4.19,4.31,0,*75
1496783056.51,33333,18.06,73520.5,4.73,4.15,4.19,0,*72
1496783057.71,33334,18.06,73526.0,4.75,4.19,4.27,0,*72
1496783058.89,33335,18.06,73530.3,4.73,4.19,4.15,0,*74
1496783060.06,33336,18.06,73538.8,4.73,4.15,4.15,0,*7B
1496783061.23,33337,18.06,73534.5,4.73,4.19,4.19,0,*7A
1496783062.41,33338,18.06,73528.3,4.73,4.07,4.15,0,*76
1496783063.64,33339,18.06,73526.3,4.73,4.05,4.05,0,*74
1496783064.85,33340,18.06,73564.0,4.73,4.05,4.07,0,*78
1496783066.03,33341,18.06,73544.3,4.73,4.19,4.15,0,*77
1496783067.2,33342,18.06,73542.8,4.73,4.19,4.15,0,*74
1496783068.38,33343,18.06,73552.0,4.73,4.15,4.07,0,*7A
1496783069.55,33344,18.06,73526.8,4.73,4.19,4.15,0,*72
1496783070.76,33345,18.06,73546.3,4.73,4.27,4.31,0,*78
1496783071.94,33346,18.06,73558.8,4.73,4.27,4.27,0,*7C
1496783073.11,33347,18.06,73562.0,4.73,4.15,4.15,0,*7D
1496783074.28,33348,18.06,73556.5,4.73,4.19,4.19,0,*72
1496783075.46,33349,18.06,73552.5,4.73,4.15,4.19,0,*7F
1496783076.63,33350,18.06,73552.5,4.73,4.19,4.19,0,*7B
1496783077.8,33351,18.06,73554.0,4.73,4.15,4.19,0,*76
1496783078.98,33352,18.06,73558.8,4.73,4.15,4.19,0,*75
1496783080.15,33353,18.06,73560.0,4.73,4.15,4.15,0,*78
1496783081.33,33354,18.06,73554.8,4.73,4.15,4.19,0,*73
1496783082.51,33355,18.06,73554.0,4.73,4.15,4.15,0,*7E
1496783083.68,33356,18.06,73552.5,4.73,4.15,4.19,0,*71
1496783084.88,33357,18.06,73554.5,4.75,4.07,4.15,0,*79
1496783086.09,33358,18.06,73556.5,4.75,4.07,4.07,0,*75
1496783087.27,33359,18.06,73566.0,4.77,4.19,4.11,0,*7E
1496783088.5,33360,18.06,73548.8,4.75,4.05,4.07,0,*7C
1496783089.76,33361,18.06,73554.3,4.75,4.05,4.05,0,*7F
1496783090.99,33362,18.06,73558.0,4.73,4.05,4.05,0,*7A
1496783092.23,33363,18.13,73560.5,4.75,4.05,4.07,0,*7F
1496783093.44,33364,18.06,73562.5,4.75,4.07,4.07,0,*7A
1496783094.67,33365,18.06,73560.0,4.73,4.05,4.05,0,*7D
1496783095.85,33366,18.06,73566.0,4.73,4.07,4.07,0,*7E
1496783097.08,33367,18.06,73562.5,4.73,4.05,4.05,0,*7F
1496783098.26,33368,18.06,73560.5,4.73,4.07,4.07,0,*70
1496783099.45,33369,18.06,73560.8,4.73,4.07,4.07,0,*71
1496783100.65,33370,18.06,73564.8,4.75,4.15,4.15,0,*7F
1496783101.85,33371,18.06,73564.0,4.75,4.15,4.15,0,*7E
1496783103.05,33372,18.06,73564.0,4.75,4.19,4.27,0,*70
1496783104.25,33373,18.06,73568.8,4.75,4.19,4.27,0,*71
1496783105.42,33374,18.06,73570.5,4.73,4.27,4.19,0,*70
1496783106.63,33375,18.06,73564.0,4.75,4.15,4.19,0,*76
1496783107.82,33376,18.06,73566.3,4.75,4.19,4.19,0,*79
1496783109.03,33377,18.13,73566.0,4.75,4.15,4.15,0,*78
1496783110.23,33378,18.06,73562.8,4.73,4.07,4.05,0,*73
1496783111.43,33379,18.06,73556.8,4.75,4.19,4.15,0,*7A
1496783112.61,33380,18.06,73554.8,4.77,4.23,4.19,0,*7B
1496783113.81,33381,18.06,73552.5,4.75,4.15,4.27,0,*70
1496783115.01,33382,18.13,73552.0,4.75,4.19,4.19,0,*72
1496783116.21,33383,18.06,73550.8,4.75,4.15,4.19,0,*7F
1496783117.41,33384,18.06,73554.5,4.75,4.15,4.27,0,*75
1496783118.61,33385,18.06,73554.8,4.75,4.19,4.27,0,*78
1496783119.83,33386,18.06,73552.5,4.75,4.31,4.27,0,*71
1496783121.04,33387,18.06,73554.5,4.75,4.27,4.27,0,*77
1496783122.27,33388,18.06,73556.3,4.77,4.31,4.31,0,*7A
1496783123.51,33389,18.06,73556.3,4.77,4.31,4.31,0,*7B
1496783124.7,33390,18.06,73556.8,4.75,4.19,4.27,0,*7C
1496783125.88,33391,18.06,73558.0,4.77,4.23,4.23,0,*72
1496783127.09,33392,18.06,73556.5,4.75,4.27,4.27,0,*73
1496783128.31,33393,18.06,73558.3,4.75,4.31,4.27,0,*75
1496783129.52,33394,18.06,73550.0,4.77,4.19,4.31,0,*7D
1496783130.69,33395,18.06,73548.3,4.77,4.23,4.27,0,*72
1496783131.9,33396,18.06,73540.0,4.79,4.23,4.23,0,*7B
1496783133.11,33397,18.06,73540.8,4.75,4.07,4.07,0,*76
1496783134.34,33398,18.06,73542.3,4.75,4.07,4.05,0,*7B
1496783135.6,33399,18.06,73534.8,4.75,4.05,4.05,0,*78
1496783136.78,33400,18.06,73526.8,4.77,4.07,4.07,0,*7D
1496783137.97,33401,18.06,73524.8,4.77,4.07,4.07,0,*7C
1496783139.23,33402,18.13,73530.0,4.75,4.05,4.05,0,*7D
1496783140.41,33403,18.06,73526.3,4.77,4.07,4.11,0,*79
1496783141.61,33404,18.06,73508.5,4.75,4.15,4.19,0,*77
1496783142.79,33405,18.06,73506.0,4.77,4.23,4.23,0,*78
1496783143.98,33406,18.06,73506.0,4.75,4.19,4.19,0,*79
1496783145.16,33407,18.06,73502.8,4.77,4.23,4.23,0,*7A
1496783146.34,33408,18.06,73506.8,4.77,4.19,4.23,0,*7C
1496783147.54,33409,18.06,73510.3,4.79,4.23,4.15,0,*7F
1496783148.73,33410,18.06,73508.0,4.77,4.07,4.07,0,*7C
1496783149.9,33411,18.06,73524.0,4.77,4.11,4.19,0,*75
1496783151.11,33412,18.06,73526.5,4.75,4.07,4.15,0,*7F
1496783152.28,33413,18.06,73520.8,4.77,4.19,4.19,0,*7F
1496783153.46,33414,18.06,73524.5,4.77,4.19,4.19,0,*78
1496783154.64,33415,18.06,73520.0,4.77,4.11,4.11,0,*79
1496783155.86,33416,18.06,73522.5,4.75,4.01,3.93,0,*74
1496783157.09,33417,18.06,73526.5,4.75,4.01,3.93,0,*75
1496783158.33,33418,18.06,73532.0,4.77,4.05,4.05,0,*74
1496783159.56,33419,18.06,73530.3,4.75,4.01,4.07,0,*71
1496783160.78,33420,18.06,73536.0,4.75,4.01,4.07,0,*7B
1496783161.99,33421,18.06,73534.5,4.79,4.15,4.23,0,*75
1496783163.17,33422,18.06,73536.8,4.77,4.11,4.19,0,*75
1496783164.34,33423,18.06,73546.0,4.77,4.19,4.23,0,*75
1496783165.52,33424,18.06,73546.3,4.77,4.23,4.23,0,*7B
1496783166.7,33425,18.06,73546.5,4.77,4.23,4.23,0,*7A
1496783167.91,33426,18.06,73544.3,4.75,4.15,4.15,0,*7B
1496783169.08,33427,18.06,73540.0,4.77,4.19,4.11,0,*70
1496783170.26,33428,18.06,73540.3,4.77,4.11,4.11,0,*77
1496783171.44,33429,18.06,73542.5,4.77,4.11,4.11,0,*76
1496783172.61,33430,18.06,73542.8,4.77,4.11,4.19,0,*76
1496783173.79,33431,18.06,73540.0,4.77,4.07,4.19,0,*70
1496783175.0,33432,18.06,73538.8,4.79,4.23,4.23,0,*72
1496783176.17,33433,18.06,73540.3,4.77,4.23,4.23,0,*7D
1496783177.35,33434,18.06,73542.3,4.77,4.19,4.23,0,*73
1496783178.53,33435,18.06,73540.5,4.77,4.19,4.19,0,*7B
1496783179.73,33436,18.06,73544.3,4.79,4.15,4.15,0,*76
1496783180.91,33437,18.06,73546.5,4.77,4.19,4.11,0,*71
1496783182.08,33438,18.06,73548.0,4.77,4.19,4.19,0,*76
1496783183.28,33439,18.06,73552.3,4.75,4.27,4.19,0,*78
1496783184.45,33440,18.06,73550.5,4.77,4.19,4.11,0,*71
1496783185.71,33441,18.06,73550.8,4.75,4.05,4.05,0,*7A
1496783186.9,33442,18.06,73550.0,4.77,4.07,4.07,0,*7B
1496783188.07,33443,18.06,73548.8,4.77,4.19,4.11,0,*72
1496783189.27,33444,18.06,73548.8,4.79,4.27,4.27,0,*73
1496783190.48,33445,18.06,73552.5,4.79,4.15,4.15,0,*72
1496783191.67,33446,18.06,73552.5,4.77,4.07,4.07,0,*7F
1496783192.85,33447,18.06,73544.8,4.77,4.07,4.07,0,*7E
1496783194.1,33448,18.13,73548.8,4.75,4.05,4.01,0,*77
1496783195.34,33449,18.06,73552.3,4.77,4.05,4.05,0,*70
1496783196.55,33450,18.06,73556.3,4.77,4.07,4.05,0,*7A
1496783197.73,33451,18.06,73556.0,4.77,4.11,4.07,0,*7E
1496783198.92,33452,18.06,73554.0,4.77,4.07,4.07,0,*7A
1496783200.1,33453,18.06,73550.0,4.77,4.11,4.07,0,*7C
1496783201.28,33454,18.06,73542.5,4.77,4.07,4.11,0,*7B
1496783202.46,33455,18.06,73538.0,4.77,4.19,4.11,0,*75
1496783203.64,33456,18.06,73546.8,4.77,4.07,4.11,0,*79
1496783204.82,33457,18.06,73546.8,4.77,4.07,4.11,0,*78
1496783206.0,33458,18.06,73552.5,4.77,4.07,4.07,0,*70
1496783207.26,33459,18.06,73548.5,4.75,4.05,4.05,0,*73
1496783208.45,33460,18.06,73544.8,4.77,4.07,4.07,0,*7B
1496783209.7,33461,18.06,73546.3,4.75,4.05,4.05,0,*78
1496783210.89,33462,18.06,73540.0,4.77,4.07,4.07,0,*79
1496783212.07,33463,18.06,73534.3,4.77,4.07,4.07,0,*78
1496783213.26,33464,18.06,73526.5,4.77,4.11,4.07,0,*78
1496783214.45,33465,18.06,73524.0,4.77,4.07,4.07,0,*7E
1496783215.63,33466,18.13,73532.8,4.77,4.19,4.07,0,*72
1496783216.81,33467,18.06,73536.5,4.77,4.07,4.07,0,*7C
1496783217.99,33468,18.06,73538.3,4.77,4.07,4.11,0,*74
1496783219.18,33469,18.06,73540.5,4.77,4.07,4.07,0,*72
1496783220.38,33470,18.13,73540.8,4.75,4.15,4.15,0,*78
1496783221.58,33471,18.06,73546.3,4.75,4.19,4.19,0,*79
1496783222.79,33472,18.13,73550.0,4.79,4.37,4.33,0,*72
1496783223.98,33473,18.06,73550.0,4.81,4.37,4.37,0,*70
1496783225.19,33474,18.06,73552.0,4.79,4.37,4.37,0,*70
1496783226.4,33475,18.06,73562.3,4.79,4.33,4.37,0,*75
1496783227.6,33476,18.06,73560.5,4.79,4.23,4.23,0,*72
1496783228.81,33477,18.06,73560.0,4.79,4.27,4.33,0,*76
1496783230.0,33478,18.06,73558.3,4.81,4.27,4.33,0,*7E
1496783231.21,33479,18.06,73558.0,4.79,4.27,4.33,0,*78
1496783232.41,33480,18.06,73552.0,4.79,4.33,4.33,0,*7B
1496783233.6,33481,18.06,73548.8,4.81,4.37,4.33,0,*79
1496783234.81,33482,18.06,73558.5,4.79,4.37,4.49,0,*70
1496783236.01,33483,18.06,73558.0,4.79,4.49,4.45,0,*74
1496783237.2,33484,18.06,73554.0,4.79,4.49,4.49,0,*7F
1496783238.4,33485,18.06,73552.5,4.79,4.49,4.57,0,*71
1496783239.61,33486,18.06,73558.8,4.79,4.45,4.45,0,*7D
1496783240.79,33487,18.06,73562.3,4.81,4.33,4.37,0,*7F
1496783242.0,33488,18.06,73562.8,4.79,4.37,4.37,0,*73
1496783243.18,33489,18.13,73566.0,4.81,4.49,4.45,0,*79
1496783244.35,33490,18.06,73564.0,4.81,4.45,4.45,0,*7D
1496783245.53,33491,18.06,73560.5,4.81,4.27,4.27,0,*7C
1496783246.7,33492,18.13,73564.0,4.81,4.33,4.27,0,*7A
1496783247.87,33493,18.06,73566.8,4.81,4.33,4.27,0,*7B
1496783249.05,33494,18.06,73558.5,4.81,4.15,4.23,0,*7C
1496783250.23,33495,18.13,73556.5,4.81,4.23,4.23,0,*78
1496783251.4,33496,18.06,73552.3,4.81,4.11,4.11,0,*7B
1496783252.58,33497,18.06,73552.0,4.81,4.15,4.11,0,*7E
1496783253.78,33498,18.06,73556.3,4.79,4.15,4.15,0,*72
1496783254.96,33499,18.06,73552.0,4.81,4.23,4.23,0,*74
1496783256.13,33500,18.06,73550.3,4.81,4.23,4.15,0,*70
1496783257.31,33501,18.06,73556.3,4.81,4.11,4.15,0,*70
1496783258.49,33502,18.06,73558.8,4.81,4.27,4.27,0,*77
1496783259.66,33503,18.13,73558.3,4.81,4.23,4.27,0,*72
1496783260.83,33504,18.06,73554.8,4.81,4.33,4.27,0,*74
1496783262.02,33505,18.06,73556.3,4.85,4.37,4.37,0,*74
1496783263.2,33506,18.06,73554.3,4.85,4.41,4.37,0,*76
1496783264.37,33507,18.06,73552.5,4.85,4.41,4.49,0,*7E
1496783265.57,33508,18.06,73558.5,4.87,4.41,4.49,0,*73
1496783266.75,33509,18.06,73556.3,4.81,4.45,4.45,0,*7C
1496783267.91,33510,18.06,73558.0,4.85,4.49,4.49,0,*70
1496783269.11,33511,18.06,73556.8,4.87,4.49,4.49,0,*73
1496783270.28,33512,18.06,73554.5,4.85,4.41,4.49,0,*7A
1496783271.46,33513,18.13,73554.3,4.85,4.41,4.41,0,*73
1496783272.67,33514,18.06,73560.5,4.87,4.41,4.41,0,*76
1496783273.86,33515,18.06,73560.3,4.87,4.49,4.49,0,*77
1496783275.06,33516,18.06,73558.8,4.87,4.41,4.49,0,*7C
1496783276.24,33517,18.06,73554.0,4.85,4.27,4.27,0,*77
1496783277.44,33518,18.06,73552.5,4.87,4.27,4.27,0,*7A
1496783278.67,33519,18.06,73552.5,4.85,4.31,4.31,0,*79
1496783279.86,33520,18.06,73552.8,4.85,4.37,4.37,0,*73
1496783281.06,33521,18.06,73552.0,4.87,4.41,4.37,0,*71
1496783282.24,33522,18.06,73558.0,4.85,4.41,4.37,0,*70
1496783283.42,33523,18.06,73552.5,4.85,4.41,4.37,0,*71
1496783284.64,33524,18.06,73556.5,4.87,4.37,4.41,0,*74
1496783285.85,33525,18.06,73560.8,4.87,4.37,4.37,0,*74
1496783287.06,33526,18.06,73558.8,4.87,4.37,4.37,0,*77
1496783288.27,33527,18.06,73556.3,4.85,4.31,4.37,0,*72
1496783289.51,33528,18.06,73558.5,4.87,4.27,4.31,0,*7E
1496783290.68,33529,18.06,73558.8,4.85,4.41,4.41,0,*7A
1496783291.86,33530,18.06,73556.0,4.85,4.41,4.41,0,*72
1496783293.12,33531,18.13,73560.8,4.87,4.31,4.31,0,*71
1496783294.32,33532,18.06,73556.3,4.87,4.27,4.19,0,*7F
1496783295.5,33533,18.06,73558.5,4.85,4.27,4.27,0,*71
1496783296.76,33534,18.06,73554.3,4.87,4.31,4.31,0,*74
1496783297.96,33535,18.06,73552.5,4.87,4.41,4.37,0,*74
1496783299.17,33536,18.06,73552.8,4.87,4.41,4.41,0,*76
1496783300.38,33537,18.06,73552.5,4.87,4.41,4.41,0,*77
1496783301.55,33538,18.06,73558.3,4.85,4.41,4.49,0,*72
1496783302.72,33539,18.06,73556.3,4.89,4.45,4.53,0,*70
1496783303.9,33540,18.06,73556.5,4.89,4.45,4.45,0,*79
1496783305.08,33541,18.06,73556.3,4.85,4.37,4.41,0,*75
1496783306.26,33542,18.06,73556.0,4.89,4.41,4.41,0,*7B
1496783307.43,33543,18.06,73560.5,4.89,4.41,4.53,0,*79
1496783308.61,33544,18.06,73562.8,4.89,4.45,4.57,0,*7E
1496783309.78,33545,18.06,73562.0,4.89,4.33,4.33,0,*7C
1496783310.99,33546,18.13,73562.8,4.89,4.33,4.31,0,*7D
1496783312.16,33547,18.06,73556.0,4.89,4.19,4.23,0,*77
1496783313.36,33548,18.13,73560.0,4.89,4.31,4.33,0,*73
1496783314.57,33549,18.06,73556.3,4.89,4.31,4.33,0,*72
1496783315.77,33550,18.06,73556.3,4.91,4.37,4.49,0,*78
1496783316.95,33551,18.06,73556.5,4.89,4.41,4.41,0,*79
1496783318.14,33552,18.13,73558.3,4.91,4.45,4.45,0,*73
1496783319.32,33553,18.13,73556.0,4.89,4.41,4.41,0,*7B
1496783320.49,33554,18.13,73556.0,4.89,4.45,4.45,0,*7C
1496783321.66,33555,18.06,73556.8,4.89,4.45,4.45,0,*7D